Погода в Синеньких

Россия / Саратовская область     51°14′12″N   45°46′05″E
темп.,
°C
ветер,
м/с
пор.,
м/с
влажн.,
%
обл.,
%
осадки,
мм/ч
давл.,
гПа
погр.,
м
6 мая, чт
чт601:00+9зюз45712 0.0 101746
04:00+8зюз33711 0.0 101833
07:00+9юз22715 0.0 101942
10:00+13ю34595 0.0 1019531
13:00+15ююв45525 0.0 1018749
16:00+15ююв565071 0.0 1017843
19:00+14ю4558100 0.0 101785
22:00+12ююз4562100 0.0 101764
7 мая, пт
пт701:00+11ю3464100 0.0 101739
04:00+10ю3468100 0.0 101758
07:00+10ююв3670100 0.0 1017127
10:00+13ююв5761100 0.0 1016199
13:00+15ю565499 0.0 1016667
16:00+15ююз3463100 0.0 101656
19:00+13сз5879100 0.6 1016113
22:00+12в1187100 1.6 101811
8 мая, сб
сб801:00+10зюз009066 0.0 101810
04:00+10всв11895 0.0 101810
07:00+11ююв01832 0.0 101832
10:00+14юв34650 0.0 1017336
13:00+17ю5751100 0.0 1016812
16:00+18ю5750100 0.0 1015854
19:00+17ю4462100 0.0 101446
22:00+14ююв336898 0.0 101317
9 мая, вс
вс901:00+13ююв347095 0.0 101326
04:00+12ю337695 0.0 101224
07:00+13ююв2280100 0.1 101223
10:00+15ю3565100 0.1 1013254
13:00+17ю5850100 0.0 1012484
16:00+18ю4650100 0.0 1012748
19:00+16всв1161100 0.0 101211
22:00+14св4463100 0.0 101337
10 мая, пн
пн1001:00+13ссв4672100 0.0 101365
04:00+13ссв5676100 0.1 101459
07:00+12св3486100 0.4 101760
10:00+13св61080100 0.4 1018148
13:00+15св61072100 0.1 1018250
16:00+17св6861100 0.1 1018184
19:00+17св5761100 0.0 101972
22:00+15св7127796 0.0 1021178